Theta_e
348 350 350 347 347 346 346 347 347 347 348 348 349 349 348 347 349 348 345 344 343 343 345 344 345 346 345 347 346 346 346 346 346 345 345 347 348 347 345 345 346 346 345 344 343 344 345 342 341 342 342 340 341 344 343 342 341 341 340 339 335 331 327 327 327 327 328 330 331 331 331 332 335 336
349 351 352 351 349 347 347 347 348 347 347 347 345 347 349 349 350 350 348 345 342 341 342 342 342 343 343 347 349 349 349 348 348 348 347 348 348 347 346 347 347 346 345 344 344 345 343 342 343 343 341 341 342 344 343 343 343 345 344 344 342 340 333 328 327 327 327 327 329 331 331 331 333 335
351 351 352 352 351 349 349 348 348 348 348 349 345 343 346 347 347 347 345 346 345 344 344 343 342 342 343 347 350 350 350 351 351 350 348 349 349 348 348 348 348 347 346 345 344 343 342 343 343 341 340 342 343 344 344 344 345 346 346 345 345 345 340 331 331 335 334 329 327 329 332 332 332 333
352 353 353 352 351 349 348 347 347 348 348 348 347 346 345 345 346 346 347 348 350 350 350 346 343 342 344 345 349 349 350 350 350 349 349 350 351 350 350 348 345 344 344 343 341 342 343 344 343 341 342 343 344 345 345 346 347 348 348 347 346 347 345 339 339 344 345 340 332 327 330 332 332 332
352 354 354 353 350 346 344 343 343 345 346 348 349 348 347 347 348 349 349 350 351 351 351 348 345 345 344 345 347 348 348 349 349 350 351 351 350 349 348 344 339 338 337 339 342 343 343 343 341 341 344 345 344 345 346 348 350 349 347 347 347 348 349 346 346 346 348 348 344 334 329 330 332 333
348 351 352 351 348 345 343 345 345 345 346 350 350 349 349 350 350 350 350 351 352 350 349 348 347 347 346 346 349 350 351 351 352 352 350 347 345 345 345 342 339 338 336 338 343 344 343 345 345 345 346 347 346 347 349 350 350 349 346 346 348 349 349 349 348 347 348 350 351 347 338 331 330 333
344 346 349 348 347 347 348 352 353 351 350 350 350 350 351 351 349 350 349 349 349 349 349 349 349 349 348 350 352 351 350 349 349 350 345 342 342 343 344 344 343 343 341 339 342 344 345 348 350 350 349 349 348 349 351 352 351 350 348 348 349 350 348 348 348 348 348 350 353 354 350 340 332 331
344 345 347 349 351 352 352 354 354 353 352 351 350 350 350 350 349 349 349 350 351 351 351 351 350 351 351 350 351 349 346 344 344 344 342 341 343 344 345 345 346 346 343 340 343 344 345 346 347 348 348 348 350 352 354 355 354 353 351 351 351 351 349 348 349 349 349 351 354 355 353 349 339 331
348 348 349 351 354 354 353 352 353 353 352 353 352 352 353 352 352 353 353 353 353 353 353 351 350 350 348 346 346 346 345 345 345 344 343 343 345 347 347 346 346 346 342 340 342 342 343 344 345 345 346 348 351 354 355 356 355 355 355 354 354 353 352 352 353 353 352 353 355 354 353 350 345 336
350 352 352 352 353 354 352 350 351 352 353 352 352 352 352 353 353 353 352 352 352 352 352 352 348 344 342 341 343 346 347 347 347 347 346 344 345 348 349 347 344 342 341 342 342 341 342 344 344 346 347 348 351 353 354 355 356 356 356 356 355 355 354 354 354 355 355 355 355 355 352 350 347 340
352 354 355 355 354 354 354 352 352 353 353 353 353 353 353 353 353 353 351 349 347 345 345 344 341 338 337 338 343 346 347 347 347 347 347 345 346 348 347 345 342 340 341 341 340 339 342 343 343 345 348 350 350 351 354 355 355 356 356 356 356 356 355 355 354 354 356 356 355 355 353 351 348 344
353 354 354 354 353 352 352 353 353 353 353 353 354 353 352 351 351 350 347 343 339 337 337 338 339 339 338 338 341 342 342 343 344 344 345 347 348 347 343 341 341 341 342 341 339 339 342 343 342 344 348 350 350 351 353 356 355 355 355 355 355 355 355 355 356 356 356 356 355 354 353 351 349 345
351 353 353 353 351 350 351 351 352 352 352 351 352 352 351 350 349 345 342 339 338 340 340 341 342 343 343 343 344 344 344 347 347 345 346 346 346 343 341 339 341 343 344 343 342 342 343 345 345 345 348 349 349 350 352 355 355 355 354 354 353 354 355 356 356 356 356 355 355 354 354 352 350 348
349 351 353 352 350 349 348 349 350 351 350 350 351 352 352 352 348 344 342 341 343 344 344 345 346 347 348 348 349 350 351 351 350 348 347 347 345 344 343 343 343 345 347 347 345 344 346 347 346 347 349 349 348 349 352 353 354 354 353 353 353 354 355 355 355 356 356 355 355 355 354 354 353 350
348 350 351 351 350 349 348 348 349 349 350 350 351 352 351 350 348 346 345 345 346 347 348 349 349 350 351 352 351 352 352 352 351 349 349 349 348 348 349 348 347 347 348 349 347 346 347 348 348 347 349 349 349 349 351 351 352 353 353 355 354 354 355 355 355 355 355 355 355 355 355 356 355 354
348 348 349 349 350 349 348 348 347 347 349 348 348 349 348 348 348 349 348 348 348 349 350 351 351 352 353 353 352 352 352 352 351 350 350 350 351 351 351 350 349 348 349 350 349 349 349 349 349 349 348 349 349 349 348 349 350 351 352 354 354 354 354 355 355 354 354 355 355 355 355 356 356 355
348 348 348 348 348 349 349 348 347 347 347 346 347 348 348 348 348 349 350 350 348 347 348 349 349 351 351 351 351 351 351 352 352 351 351 351 352 352 351 350 350 350 351 351 350 349 349 349 349 349 349 349 348 348 348 348 348 349 351 352 353 353 353 354 355 354 354 355 355 356 356 356 356 357
346 346 346 346 346 346 347 348 348 348 348 349 349 350 351 350 350 350 350 349 347 347 349 351 351 351 352 351 351 352 352 352 352 352 352 352 351 350 350 351 351 351 351 350 350 349 349 349 349 349 349 348 348 348 348 348 349 350 350 350 350 351 352 354 353 354 354 354 355 355 355 356 357 357
345 344 344 344 343 342 344 346 348 349 349 350 350 350 351 351 351 352 352 350 348 347 349 351 352 352 352 352 352 353 352 352 352 352 352 352 351 351 350 351 350 350 350 349 349 349 348 348 348 348 347 347 348 348 349 349 349 349 350 350 350 350 351 351 353 353 354 354 354 354 355 356 356 356
345 345 344 344 343 344 345 346 348 350 350 349 349 349 350 350 352 352 351 349 347 346 348 350 352 352 352 352 352 352 351 351 351 351 351 351 351 350 350 349 349 348 348 348 348 348 348 347 347 346 345 346 346 347 349 349 349 349 349 349 349 349 349 349 350 351 351 351 352 353 354 354 355 355
343 345 344 345 345 345 346 347 349 349 348 347 346 348 349 349 350 350 349 348 348 348 349 350 350 351 351 350 351 350 350 351 350 351 351 350 349 348 346 345 344 342 343 345 345 345 345 344 342 340 339 339 342 345 346 347 348 348 348 348 347 346 346 346 347 348 348 349 351 352 353 353 353 353
343 345 346 346 347 347 347 348 349 348 347 346 347 347 347 347 348 348 348 348 348 348 348 348 347 348 348 349 350 350 350 351 351 350 349 347 344 341 337 334 333 331 333 336 336 337 339 338 335 331 329 331 333 336 339 342 344 346 346 346 345 345 345 345 345 346 348 349 350 351 352 352 352 351
345 347 348 347 347 348 348 348 348 348 348 347 347 347 347 347 347 347 346 345 344 343 343 344 346 347 348 349 350 350 349 348 344 340 338 335 333 329 325 324 323 322 325 331 334 335 336 334 331 326 324 326 327 326 328 331 334 337 338 338 338 339 340 341 342 345 347 348 349 349 350 350 351 350
348 348 349 349 348 349 349 348 349 348 347 346 345 343 343 343 342 340 338 337 336 336 337 341 345 347 347 347 346 344 340 334 328 326 326 326 325 322 319 319 319 318 325 334 338 337 336 335 333 325 321 324 324 321 320 322 323 325 325 325 327 329 331 335 340 343 344 343 342 344 346 348 349 350
350 350 350 349 349 349 348 347 346 344 342 341 339 335 332 332 332 330 329 329 328 326 328 332 337 339 338 336 333 329 325 322 320 321 322 322 321 317 316 318 315 315 326 336 338 338 337 336 333 324 318 318 319 316 315 316 317 316 318 322 329 332 335 338 341 341 337 331 327 329 334 340 344 346
350 349 348 348 348 347 345 341 338 334 333 332 329 326 324 324 324 324 326 325 321 319 320 322 323 324 323 322 321 319 318 317 317 318 319 319 316 312 313 313 311 317 330 335 334 335 335 334 331 324 316 313 313 312 311 312 311 311 316 325 334 340 343 343 343 340 335 328 323 319 321 326 331 334
349 348 347 346 343 339 334 329 325 323 322 321 320 321 322 324 324 325 327 324 318 315 316 316 316 317 316 315 315 315 314 314 314 314 314 314 311 310 311 309 312 324 334 333 331 333 332 329 326 319 312 311 310 309 309 310 311 315 322 328 333 339 344 343 340 338 336 334 329 318 313 317 321 324
347 345 344 339 332 325 321 318 316 316 316 315 317 320 324 326 326 325 325 323 317 313 313 313 313 313 312 312 312 313 314 313 312 311 311 310 309 309 310 308 312 323 329 328 329 332 328 321 316 311 309 309 308 309 313 313 315 323 329 331 332 337 340 339 336 335 336 335 327 315 310 312 314 316
337 335 333 328 321 316 314 314 314 315 315 315 318 321 325 328 326 323 321 318 313 311 310 310 310 310 310 310 311 313 313 311 310 310 309 309 309 308 309 309 310 315 317 319 321 320 315 311 309 307 308 308 307 312 319 322 325 330 333 332 333 334 335 334 334 334 334 328 318 310 309 311 313 320
326 323 320 317 315 314 316 317 319 319 319 321 322 321 322 326 325 322 319 315 311 309 309 309 309 309 309 309 310 311 311 309 309 309 308 308 308 307 307 308 308 308 310 310 309 308 307 307 307 306 308 307 309 318 327 329 328 330 331 330 329 329 329 329 329 327 324 316 309 309 311 311 316 329
317 315 313 313 316 319 322 323 323 323 323 324 325 321 320 324 325 323 321 317 311 309 309 309 309 310 309 309 309 309 309 308 308 307 307 306 306 306 307 307 307 307 307 306 306 306 306 306 306 307 307 306 309 321 330 332 331 331 331 329 325 321 320 321 320 316 312 309 308 309 310 309 312 321
312 312 313 316 320 323 323 324 324 324 323 323 323 322 321 323 324 323 321 317 311 308 309 309 310 310 309 308 308 307 307 307 307 307 307 306 307 307 307 307 307 307 307 306 306 306 306 306 306 307 307 306 308 316 323 325 326 325 323 320 317 312 311 312 312 309 307 308 308 308 308 308 308 309
315 317 317 320 323 323 323 323 324 324 323 322 322 323 321 321 322 322 319 314 309 307 308 308 309 308 307 306 307 306 306 306 307 307 307 308 308 308 308 307 307 306 306 306 306 306 306 306 306 306 306 306 307 310 312 313 313 312 309 308 308 307 307 308 309 309 309 309 308 307 307 307 306 307
321 322 322 322 324 323 323 323 322 322 323 322 321 321 320 319 319 318 314 310 307 306 307 308 307 307 307 307 307 306 306 307 307 307 308 308 308 307 306 306 306 305 305 305 305 305 306 305 306 306 306 305 306 307 308 308 308 307 305 306 307 307 308 309 310 310 310 309 308 307 307 306 306 307
323 323 323 323 322 321 322 322 321 320 320 319 318 318 317 316 316 314 310 308 307 307 307 308 308 308 308 307 307 307 307 307 307 307 307 307 307 307 306 306 306 305 305 305 305 305 305 305 305 305 306 306 306 306 306 307 307 305 305 306 307 307 308 311 313 312 310 311 311 310 309 306 306 306
322 323 323 322 321 321 320 320 318 317 317 316 315 314 314 314 313 311 309 309 308 308 307 308 309 309 309 308 308 308 308 308 307 307 306 306 306 306 306 306 305 305 305 305 305 304 304 304 304 305 305 305 305 305 306 307 306 305 306 306 306 307 310 311 312 311 311 313 314 312 310 308 307 306
322 323 323 322 321 320 319 318 317 315 314 314 313 312 313 313 312 310 310 309 308 307 307 308 309 311 310 310 309 308 308 308 308 307 307 306 306 306 306 305 305 305 305 305 306 305 305 305 305 305 305 305 304 304 305 306 306 306 307 308 309 312 314 313 310 308 309 310 311 310 309 309 308 307
320 320 321 320 319 318 317 316 315 314 313 313 313 313 312 312 311 310 310 309 308 308 308 308 310 312 312 311 310 309 308 308 307 307 307 306 306 306 305 304 304 304 305 305 306 305 305 305 305 305 305 306 306 306 306 306 305 305 308 312 314 314 314 313 310 308 307 307 308 309 309 309 308 307
316 316 315 315 315 314 314 314 313 313 313 312 312 311 310 309 309 309 310 310 309 309 309 309 310 311 312 310 309 308 308 308 307 307 307 307 306 305 304 304 304 304 304 305 305 305 305 305 305 305 305 307 307 307 306 307 305 304 308 312 313 312 310 309 309 307 307 308 309 309 308 307 307 309
313 312 311 311 311 311 312 312 312 311 311 310 310 309 309 309 309 310 310 310 310 310 309 310 311 311 311 310 310 309 309 309 308 308 308 307 307 306 305 304 305 305 305 304 305 305 305 305 306 306 306 307 307 306 305 306 306 305 306 308 308 308 308 307 307 307 308 309 308 307 307 308 310 312
313 312 312 311 311 311 310 310 309 309 308 309 309 308 308 309 310 310 310 310 310 310 310 310 310 310 310 309 309 309 309 309 309 308 308 307 306 305 304 304 304 305 305 306 306 306 306 306 305 306 306 306 306 306 307 308 308 307 306 305 305 306 306 307 308 309 309 309 309 310 313 314 314 315
314 314 313 313 312 311 310 309 309 309 309 309 309 309 309 309 309 309 310 310 309 309 309 309 309 309 308 308 308 308 308 308 308 307 306 306 305 304 304 303 303 304 305 306 306 306 305 305 305 305 305 305 306 307 308 308 308 307 306 306 305 305 305 306 307 308 309 310 312 314 315 315 315 314
314 313 312 312 311 310 309 308 308 308 309 308 309 309 309 309 308 308 308 309 309 309 309 308 308 308 307 307 307 307 306 306 305 304 304 303 303 303 303 303 303 303 304 305 306 305 305 304 304 304 304 305 306 307 307 307 307 307 306 306 306 306 306 306 307 308 310 312 313 314 314 314 313 312
312 312 311 310 309 309 308 308 308 307 307 308 308 308 307 307 307 307 307 307 307 307 307 307 307 307 306 305 305 304 303 303 303 302 303 303 303 303 303 303 303 304 305 305 305 305 304 304 304 304 304 305 305 306 306 306 306 306 306 306 306 306 306 306 307 308 310 311 311 311 311 311 311 310
310 310 309 309 308 308 308 308 307 307 307 306 306 306 306 306 306 306 306 306 306 306 306 305 305 304 303 303 302 301 301 302 302 302 302 302 302 302 302 302 302 303 304 304 304 304 304 304 303 303 303 304 304 304 305 305 305 305 305 306 306 306 306 307 308 309 309 309 308 307 307 308 308 308
Wind_Speed
8 6 3 2 4 5 4 4 4 4 5 6 7 6 5 5 6 9 10 10 10 10 10 10 10 9 9 10 12 14 16 16 16 17 17 16 17 18 16 15 15 16 16 17 18 17 15 18 21 20 20 23 24 23 25 28 27 25 24 23 21 19 18 17 17 17 18 17 17 16 15 14 14 14
8 8 6 5 5 5 5 4 3 3 4 4 5 7 6 5 7 10 12 13 11 10 9 10 11 12 11 10 12 14 14 14 15 16 15 16 17 15 14 16 16 14 15 17 16 14 16 18 19 19 20 22 23 23 23 26 27 26 26 25 23 21 19 17 16 17 17 17 17 17 16 14 13 13
7 7 8 9 9 9 8 7 6 5 4 4 4 4 4 5 7 9 11 12 11 10 10 10 10 11 11 9 10 11 11 12 13 15 14 15 15 14 14 17 17 14 15 16 15 15 17 18 19 20 20 20 21 21 22 25 25 25 25 24 23 22 20 17 16 18 19 18 17 17 16 16 14 13
7 7 9 9 9 10 10 10 10 9 7 5 4 4 5 5 6 7 9 11 11 11 12 14 13 12 11 9 10 11 12 12 14 13 12 13 14 14 15 16 16 14 14 15 15 16 17 20 22 20 18 18 19 20 22 24 24 23 23 22 21 21 20 17 17 19 21 20 18 16 16 16 15 14
9 8 9 8 7 8 9 8 8 10 9 6 5 7 8 8 8 8 10 11 12 12 13 16 16 12 11 11 11 12 13 13 13 12 12 14 15 14 15 15 15 15 14 13 14 16 19 21 20 17 17 20 20 21 23 23 23 22 20 18 19 20 20 19 18 18 20 22 21 18 16 16 16 15
9 9 9 9 8 7 6 3 3 5 7 6 6 6 5 6 7 8 8 8 11 12 14 16 15 13 12 12 10 11 12 13 13 14 14 15 15 14 14 15 16 19 20 18 16 19 21 19 18 18 19 21 22 23 24 22 21 19 16 16 19 21 20 19 18 18 19 22 23 22 19 16 16 15
8 9 9 10 8 6 4 2 3 4 5 7 8 6 4 6 8 9 8 9 11 14 15 15 14 13 12 11 11 11 12 14 14 14 14 15 15 14 14 15 16 18 22 22 21 22 20 18 18 20 20 22 24 24 22 18 16 15 14 15 18 20 19 18 17 18 18 20 23 24 22 18 16 15
7 7 7 7 6 5 5 5 6 6 7 8 8 8 7 9 10 10 9 10 11 13 14 13 12 13 12 12 11 12 13 14 14 14 15 16 16 15 13 13 13 15 20 23 23 22 22 22 23 24 24 23 21 19 17 14 14 14 14 16 18 19 19 18 17 17 18 20 24 26 24 20 16 14
6 6 6 6 6 6 6 7 8 7 7 7 7 8 8 8 8 9 9 9 10 11 13 13 12 12 12 12 11 11 14 14 14 16 16 15 15 14 12 10 12 16 21 23 23 23 25 28 29 29 25 20 18 16 14 13 14 15 15 17 18 19 19 18 17 17 17 19 23 26 24 20 16 14
6 5 5 6 6 6 6 6 7 6 6 7 8 8 7 7 8 9 9 9 9 10 11 12 13 12 13 12 10 11 13 14 14 15 15 14 13 11 11 12 16 20 22 23 24 25 28 30 30 28 23 18 17 16 16 16 17 17 17 17 17 18 19 19 17 16 16 18 22 24 23 20 16 14
7 7 7 7 7 9 10 8 6 6 7 8 9 7 6 6 7 7 8 9 9 10 11 12 13 13 13 13 11 11 12 12 13 15 16 16 14 13 15 18 21 22 22 24 25 27 29 30 29 26 21 18 17 17 17 18 20 20 18 17 17 18 18 17 16 15 15 18 21 22 22 19 17 14
8 8 8 8 9 10 10 8 7 7 7 8 8 7 7 8 9 10 11 12 11 11 11 12 12 13 13 13 11 11 12 13 14 15 16 18 19 20 20 21 22 23 25 26 27 28 30 31 28 24 20 18 18 17 16 17 18 19 18 18 18 17 15 14 15 16 16 18 20 21 21 19 16 14
9 8 7 7 8 9 7 6 7 8 8 7 8 8 9 11 12 13 13 12 11 10 10 10 11 12 13 12 13 13 13 14 15 16 18 20 21 22 22 22 23 25 28 29 29 30 31 31 27 23 20 20 20 19 16 14 15 17 19 19 18 16 15 14 14 15 16 17 19 20 20 19 16 14
8 8 7 6 7 7 7 5 6 7 9 9 8 9 12 13 12 12 11 10 10 10 10 10 11 13 13 12 13 14 15 16 18 19 20 21 21 23 26 27 26 27 29 30 31 31 30 28 26 23 21 21 20 20 18 15 15 17 19 18 17 17 16 15 15 15 16 17 18 19 20 20 19 16
5 5 5 6 7 8 8 8 8 9 9 8 8 10 11 11 10 10 10 10 10 10 10 11 11 13 13 13 14 16 18 19 21 21 21 21 23 26 29 31 31 29 30 31 32 31 27 24 24 23 21 21 20 20 19 17 17 17 16 16 17 17 16 15 16 15 15 16 17 18 19 20 20 19
4 5 6 8 9 9 9 9 9 9 9 9 9 10 11 11 10 10 10 10 9 9 11 11 11 12 13 13 14 17 19 21 22 23 22 23 25 28 29 31 32 30 29 29 30 28 24 23 24 22 21 21 21 20 20 19 18 16 15 15 17 17 16 16 16 16 14 14 14 15 17 18 18 18
8 8 9 10 10 10 9 9 9 9 10 10 10 11 11 12 10 9 9 10 12 12 13 13 13 12 13 14 15 17 20 21 23 24 25 25 26 28 29 29 29 27 25 26 27 26 24 23 23 22 22 22 23 22 20 18 17 15 13 14 16 16 16 16 17 17 15 13 13 14 14 15 15 16
12 12 12 12 12 12 11 10 10 11 11 11 11 11 12 12 12 11 12 14 15 15 14 14 14 13 13 15 16 18 20 22 23 24 25 26 27 28 27 26 24 23 22 23 25 25 23 23 23 23 24 24 24 22 19 15 14 13 13 14 15 15 14 15 16 15 14 15 16 15 14 13 13 13
13 13 13 13 14 14 13 13 13 13 12 12 13 13 13 13 13 14 15 16 17 17 16 16 15 15 15 16 16 17 19 20 22 23 24 25 25 24 23 22 22 21 20 20 21 23 23 23 24 24 24 24 23 20 17 16 15 16 15 15 14 14 14 15 15 15 15 16 17 16 15 14 13 13
15 14 15 14 15 15 15 15 14 13 12 13 14 15 14 14 13 15 17 18 18 18 18 17 16 16 16 17 18 18 19 19 20 20 21 20 20 21 21 21 21 20 20 19 20 22 23 23 24 24 24 23 22 20 20 20 20 20 18 16 16 16 17 17 17 17 17 18 18 17 16 16 16 16
18 17 17 16 16 16 16 15 14 13 13 14 15 15 15 14 15 16 18 18 17 17 16 15 15 15 16 17 18 17 17 17 17 17 17 16 17 19 20 20 21 20 18 17 19 21 22 22 24 25 24 22 21 21 22 21 21 21 19 18 18 19 19 18 17 17 18 18 19 19 19 19 18 18
18 17 17 17 17 16 16 16 16 16 16 16 17 17 16 16 16 17 16 15 14 14 13 12 11 11 12 13 13 13 13 13 13 14 14 14 15 17 17 18 19 18 16 15 18 20 20 21 23 26 26 23 20 21 22 21 21 21 20 19 20 19 19 19 18 17 16 17 18 19 20 20 20 19
17 17 17 17 17 17 17 17 17 17 17 17 17 17 17 16 14 13 12 11 11 10 8 7 6 7 8 9 9 10 10 11 12 13 12 12 13 14 14 16 17 17 16 15 17 18 19 21 23 26 28 26 23 22 22 22 21 20 20 20 20 19 19 19 18 17 16 17 19 20 20 20 20 20
18 18 18 18 18 17 15 14 14 14 14 14 13 13 12 11 9 8 7 7 6 5 3 2 3 4 5 7 7 8 9 9 10 9 10 11 11 12 13 13 14 15 15 15 16 18 19 21 22 23 25 25 25 25 23 22 20 21 21 20 19 18 18 17 16 15 16 17 19 19 19 19 20 20
19 18 17 17 15 13 11 11 10 11 11 10 8 7 6 5 4 4 3 2 1 2 1 1 2 3 4 5 6 5 6 6 6 7 8 9 10 11 13 13 14 13 12 12 15 16 17 19 21 23 24 24 26 28 27 23 21 21 20 18 17 17 16 15 15 14 15 16 18 19 18 17 17 18
17 15 13 12 10 9 8 7 7 7 6 5 4 3 2 1 1 2 2 0 1 2 1 1 1 2 3 4 4 4 5 5 6 7 8 8 9 11 12 13 13 12 10 10 12 13 15 17 20 24 26 26 26 28 28 27 24 22 18 15 15 15 16 16 16 15 15 16 19 21 20 17 15 15
15 13 11 8 6 4 4 3 2 1 0 0 1 1 1 0 1 2 2 2 3 3 2 1 2 2 3 4 5 5 7 8 8 8 9 10 11 12 11 10 8 6 5 8 10 12 14 17 19 22 24 26 27 27 27 27 25 22 19 15 14 15 15 15 17 18 19 20 22 25 23 19 15 14
11 11 9 5 2 1 1 0 1 2 2 2 1 2 2 1 1 3 5 5 5 4 3 3 3 4 4 4 5 6 8 9 9 9 10 11 12 11 10 7 4 3 5 7 9 12 15 17 19 20 20 21 23 24 24 24 22 22 20 18 17 17 16 17 20 23 24 26 28 30 27 22 18 16
7 6 5 3 2 1 1 1 1 2 3 4 2 0 1 1 3 5 6 5 4 4 3 4 4 5 4 4 5 6 8 10 10 10 10 9 9 9 8 6 4 5 6 7 8 11 13 15 16 17 17 17 18 18 20 21 20 19 20 21 21 20 19 21 24 27 29 31 32 30 26 22 18 16
5 4 3 3 3 3 3 3 4 5 6 6 4 2 1 2 5 6 6 5 5 4 4 4 4 4 4 5 5 6 8 9 10 10 10 9 8 7 6 5 4 4 5 7 9 11 12 14 16 17 17 16 14 14 17 19 19 18 19 22 24 24 23 25 28 29 30 31 30 26 23 19 16 13
4 4 4 6 7 7 8 8 8 9 8 8 5 1 1 3 5 7 7 7 7 6 5 5 4 3 4 5 5 5 6 7 9 9 10 10 10 10 9 8 8 7 8 10 13 14 15 16 17 17 18 18 15 13 13 15 17 18 20 22 25 27 27 29 30 29 29 28 26 24 22 20 17 14
6 6 9 11 11 10 10 11 12 11 8 7 5 3 2 2 4 5 6 6 6 6 5 5 3 4 5 6 6 6 7 7 8 9 10 11 12 13 13 14 14 15 15 16 17 18 18 19 18 18 19 20 17 14 14 15 16 18 21 23 24 25 26 27 28 28 27 27 27 26 25 23 21 19
9 10 12 12 11 11 11 11 11 10 8 7 6 5 5 6 6 6 6 6 6 6 5 4 5 6 7 8 8 9 9 9 10 11 12 12 13 14 15 16 18 20 21 22 22 22 21 21 21 21 21 21 19 17 18 19 19 21 24 25 25 26 26 26 26 27 27 29 31 31 30 28 26 24
13 12 12 11 11 11 11 10 8 7 6 6 6 6 7 8 9 8 8 7 6 6 5 5 6 7 9 9 10 10 11 11 12 12 12 13 14 16 17 18 20 21 23 24 25 25 25 25 25 24 24 23 22 20 20 22 24 26 27 28 29 29 29 28 28 28 29 31 33 34 34 32 30 30
13 11 10 10 9 9 9 8 7 5 4 4 5 6 7 8 9 9 9 8 7 7 7 6 7 9 10 10 11 11 12 12 13 13 14 14 16 17 18 20 21 22 23 24 25 26 26 28 29 29 28 27 27 25 22 23 26 28 30 30 31 31 32 31 31 32 33 33 33 34 35 36 35 33
12 10 9 9 8 6 6 6 5 4 3 3 4 5 6 6 8 9 9 9 9 8 7 6 8 10 11 11 12 13 13 14 14 15 15 16 17 18 19 19 20 21 21 22 23 24 25 26 28 30 31 32 33 32 29 27 27 29 31 32 32 33 33 34 34 35 36 35 34 35 38 38 38 36
12 10 9 8 7 6 4 3 3 3 3 3 4 4 5 5 7 8 9 9 9 7 6 6 8 10 11 12 13 14 15 16 16 16 17 18 18 19 20 21 21 21 20 20 20 22 24 24 25 27 30 32 34 36 36 33 31 30 30 31 32 31 31 34 37 38 37 37 37 38 38 38 40 39
10 9 7 7 6 5 4 3 3 3 2 3 4 5 5 5 6 7 8 9 8 6 5 5 6 8 11 13 15 16 17 18 18 18 18 19 19 20 21 22 21 20 20 20 21 22 23 23 23 24 26 28 31 34 36 37 36 33 30 28 28 29 31 33 36 38 39 39 38 37 37 37 39 39
6 5 4 4 4 3 3 3 3 3 3 5 6 6 6 5 5 6 7 8 8 7 6 6 7 9 12 14 16 17 18 19 19 19 19 19 20 21 21 20 21 21 22 22 23 23 23 22 22 22 22 23 24 27 30 33 35 34 29 25 25 28 32 34 36 37 37 38 38 39 39 38 35 32
4 3 3 3 3 3 3 3 3 3 4 5 6 5 4 4 4 5 5 6 8 8 8 9 10 11 13 14 15 17 17 18 19 19 20 21 22 21 21 20 21 23 24 24 25 25 24 23 22 20 19 19 21 23 24 26 29 31 30 28 26 27 29 30 32 34 34 35 37 38 39 37 35 33
4 3 2 2 1 0 0 1 1 2 2 3 4 3 2 2 3 3 4 7 8 8 10 11 12 13 14 15 16 17 18 19 20 20 21 22 22 21 20 20 21 21 22 23 24 25 25 24 22 20 19 20 21 21 22 23 26 29 30 30 28 27 25 24 24 26 28 30 31 31 30 31 33 34
3 2 1 0 1 2 3 2 2 1 1 1 1 1 2 4 5 5 6 9 10 11 12 13 13 14 15 16 17 18 19 20 21 22 23 23 23 23 23 22 22 21 19 19 20 23 25 25 24 23 23 22 20 20 22 24 27 30 31 31 30 27 25 24 22 20 21 21 22 24 27 30 32 33
4 3 3 4 5 5 5 4 4 4 4 4 3 3 5 7 8 8 9 10 12 12 13 14 14 15 16 17 18 19 20 22 24 24 24 24 23 22 21 20 18 16 15 15 18 22 24 25 25 25 23 20 18 20 23 25 26 29 31 32 31 30 28 26 23 21 20 19 17 17 21 25 29 33
4 4 6 6 6 7 7 6 6 7 6 7 7 8 9 10 11 11 11 12 13 14 15 16 17 18 19 20 21 22 22 22 23 22 22 21 20 18 16 15 13 13 13 15 18 20 22 23 24 24 22 20 19 20 23 25 27 29 30 31 32 32 30 28 27 26 25 22 20 20 20 22 25 30
6 6 7 8 8 9 9 9 9 10 9 9 10 11 11 11 12 13 13 13 14 14 15 17 18 20 21 22 23 22 21 21 20 20 20 20 19 17 16 15 15 15 15 15 17 20 21 22 23 23 23 23 22 22 23 24 26 27 29 30 31 31 30 30 29 29 30 30 29 29 28 27 28 29
Wind_Direction
164 155 169 200 201 196 186 190 226 252 254 261 258 252 265 291 306 304 293 289 282 270 273 287 294 295 299 306 312 324 332 331 329 331 330 331 330 328 336 350 351 351 352 347 344 344 346 348 350 350 351 355 356 354 357 360 359 358 359 357 355 352 349 351 354 356 355 352 349 346 344 346 349 352
171 174 184 200 206 194 177 175 207 248 263 278 260 238 246 285 303 303 303 304 302 296 294 297 301 300 296 301 313 324 328 328 327 323 320 323 326 331 345 350 347 349 346 344 349 351 347 349 351 351 350 351 350 348 351 355 355 354 355 356 357 356 352 350 353 355 354 352 350 347 343 342 344 348
179 187 198 211 218 217 216 208 200 204 229 278 286 249 243 275 290 296 301 304 311 321 318 318 324 318 308 309 317 320 322 323 318 315 320 330 337 344 344 337 334 335 334 337 347 351 349 349 346 346 349 349 347 345 347 350 349 348 349 350 352 356 356 356 359 0 357 352 348 347 345 340 338 341
194 211 226 231 227 225 229 225 217 217 218 232 275 290 283 287 295 305 309 307 316 330 329 326 331 329 320 318 317 315 315 311 307 313 327 335 335 333 330 330 333 330 323 328 345 353 349 341 339 342 349 349 346 344 343 344 342 340 340 341 344 349 352 353 356 359 360 357 351 345 344 341 336 334
212 217 231 245 243 238 241 236 229 229 219 219 270 289 283 283 289 296 302 306 313 323 323 320 326 332 328 326 325 322 323 322 320 325 332 330 327 325 330 342 354 354 347 347 354 352 342 338 340 346 347 345 341 338 336 334 332 331 333 335 338 340 341 341 342 346 354 357 354 348 343 340 337 332
225 224 235 251 257 253 249 247 251 229 207 217 273 298 292 276 275 280 287 296 303 306 307 311 321 331 333 339 342 339 340 342 339 337 343 347 345 343 347 354 0 2 359 357 354 345 340 343 347 347 343 336 330 329 331 330 330 331 333 335 338 337 335 333 332 334 343 351 352 349 344 338 335 332
236 236 243 254 261 255 233 260 309 276 227 232 253 272 282 267 265 273 281 287 289 292 298 308 321 332 339 345 347 348 353 352 346 346 357 5 2 356 353 351 353 353 350 348 346 341 342 347 345 339 333 325 323 328 335 338 339 341 340 340 340 339 336 334 331 328 334 342 345 345 343 338 332 330
237 239 243 254 266 264 243 247 262 261 262 261 250 251 264 264 263 269 274 279 282 289 299 310 324 334 338 340 345 356 1 359 358 358 360 359 356 353 347 343 347 345 339 338 337 338 343 347 343 338 331 326 329 338 346 351 352 352 349 343 339 337 335 335 336 334 333 337 339 340 340 336 330 327
246 249 256 262 267 272 262 243 239 245 261 266 259 261 267 264 267 275 278 281 285 292 302 311 323 332 333 336 351 2 354 345 347 351 352 349 346 344 338 334 338 335 330 330 332 336 342 344 343 341 339 339 346 351 355 358 355 351 346 340 337 336 335 336 339 339 336 334 336 339 340 336 328 323
246 250 265 271 268 275 283 267 252 252 255 260 268 276 274 265 269 278 283 285 288 295 300 306 317 327 332 337 352 357 344 336 337 339 338 336 336 333 323 319 324 326 325 327 330 335 339 340 341 342 342 345 353 358 2 3 358 350 343 338 338 338 337 335 335 338 338 336 337 340 341 338 331 323
244 243 253 264 264 263 269 272 265 257 256 262 272 283 286 279 277 283 293 299 303 308 310 312 318 324 327 331 337 337 331 330 332 329 324 324 323 316 310 312 318 323 324 325 328 332 335 336 338 340 339 343 349 357 4 4 359 353 345 339 336 335 337 338 339 343 344 341 340 341 341 338 334 327
250 249 250 258 262 260 261 265 264 263 266 268 272 286 299 299 297 297 301 306 311 314 316 318 321 321 323 326 326 320 317 315 315 313 312 314 312 308 308 312 318 322 324 324 326 330 332 333 335 336 337 340 343 351 3 3 355 347 341 336 332 332 337 343 343 345 346 344 344 345 344 340 335 331
253 252 257 266 270 269 265 265 267 274 283 280 274 284 297 302 301 297 296 300 306 311 314 318 323 324 328 332 329 325 325 319 311 308 307 308 309 310 311 313 318 323 325 325 326 329 332 333 334 334 334 336 338 344 353 354 346 340 337 336 336 336 337 338 340 344 348 348 347 347 349 348 342 335
259 253 257 273 283 278 267 263 270 282 289 288 280 279 285 292 294 292 290 293 300 307 314 320 325 326 330 335 332 329 325 316 310 309 310 311 314 316 317 318 323 327 327 325 325 329 333 334 334 335 334 333 335 338 339 337 339 341 337 336 339 340 337 335 340 348 351 350 349 350 352 354 351 344
271 262 258 268 277 276 268 263 259 258 262 266 268 268 274 281 284 286 290 295 301 310 313 316 318 318 321 324 323 317 309 306 307 309 312 314 317 320 321 322 325 329 327 323 323 328 335 335 333 335 336 336 338 339 335 331 334 337 334 334 337 338 336 335 338 345 350 350 349 347 348 351 353 350
271 268 262 260 264 267 272 270 260 250 250 258 264 266 272 276 277 282 292 293 294 298 298 299 301 302 304 306 305 301 299 300 305 309 312 313 315 318 321 321 322 325 324 321 322 327 334 333 331 334 337 337 336 335 333 332 332 327 324 329 331 331 331 332 333 336 342 345 343 340 341 345 349 350
260 267 268 268 272 276 278 273 263 260 264 267 269 273 278 280 276 278 285 285 287 291 292 295 298 298 297 297 294 294 296 300 303 306 310 311 313 316 317 318 320 323 323 323 323 325 330 331 330 334 336 334 333 333 333 334 333 326 323 326 324 322 323 326 328 331 334 335 335 336 339 342 343 346
252 255 259 266 276 280 279 276 272 271 271 269 269 275 281 282 277 275 280 285 290 292 292 295 300 300 299 298 296 296 298 300 302 305 308 310 312 314 315 317 319 322 325 325 323 324 331 336 335 337 339 338 339 338 336 338 339 335 333 329 321 320 321 323 326 328 328 328 329 331 334 335 334 337
251 253 257 265 273 277 280 283 280 274 270 269 271 275 277 277 275 276 281 286 289 290 291 294 299 300 299 297 295 296 298 300 302 304 307 309 311 312 315 318 322 327 330 329 327 329 337 343 342 342 345 347 348 350 351 354 355 351 346 338 333 334 333 328 326 325 324 325 325 324 325 326 327 329
250 253 256 261 268 273 278 282 280 272 269 270 271 271 272 274 273 273 277 281 284 286 288 291 294 296 295 293 293 296 300 301 302 303 304 307 310 314 320 326 332 338 341 340 337 336 340 344 342 342 346 351 356 2 6 6 6 4 1 357 355 353 346 338 332 327 326 326 324 321 319 320 323 325
250 254 258 261 266 270 273 275 275 273 274 276 274 273 274 275 274 273 276 279 281 281 283 287 291 292 291 292 296 301 304 305 305 307 309 314 319 324 329 333 335 341 346 345 339 337 339 343 342 341 343 349 357 3 5 5 6 7 8 9 8 2 356 351 343 334 330 328 326 325 325 324 324 324
250 255 260 264 267 268 269 270 270 272 277 280 279 279 279 280 280 280 281 282 281 281 283 285 287 286 287 293 302 306 308 309 312 316 319 323 326 329 334 337 339 346 355 349 340 338 342 346 347 345 345 349 356 360 359 359 1 2 4 7 7 1 358 359 355 348 342 338 335 334 334 333 332 330
249 254 259 264 267 267 268 269 271 276 281 284 286 288 288 286 284 284 286 288 289 290 287 280 274 278 287 296 303 306 309 314 322 325 326 327 331 337 345 349 351 357 3 357 348 346 348 350 352 351 349 348 350 354 358 359 360 1 2 2 1 358 356 358 358 356 357 354 351 350 348 344 340 338
249 252 256 260 263 265 268 273 279 285 291 294 297 299 295 289 284 286 291 294 300 305 297 267 255 271 288 294 297 305 314 325 335 335 328 330 340 348 352 354 357 2 6 3 356 351 349 348 348 347 348 345 341 344 352 358 0 3 3 1 360 359 356 355 357 1 4 4 1 0 360 356 350 345
252 254 256 258 261 265 272 280 289 297 302 305 306 304 300 292 288 296 296 287 318 348 3 199 221 242 270 287 300 316 325 334 341 332 325 335 346 348 345 344 351 1 7 5 357 348 344 345 341 339 340 338 335 337 342 348 355 0 2 2 3 2 359 359 360 1 2 3 3 2 1 0 358 353
248 252 255 256 260 268 279 291 303 309 307 303 294 286 282 278 300 308 286 255 41 22 36 166 222 243 273 297 315 326 319 317 321 319 323 334 338 339 339 339 345 358 1 354 346 338 335 338 336 333 333 334 334 336 339 343 349 354 359 5 8 7 6 3 356 349 347 351 354 354 352 352 354 354
240 244 246 249 258 272 288 301 318 340 9 251 278 267 240 144 3 311 284 320 355 345 326 314 299 305 327 330 325 320 309 309 320 324 325 328 329 332 336 336 342 357 345 328 328 326 325 326 328 328 331 333 334 337 340 342 347 354 358 359 1 5 6 359 347 339 336 338 341 343 344 342 343 344
231 234 233 227 219 223 249 283 82 97 115 127 167 260 263 246 263 274 287 314 327 318 314 328 330 339 353 344 326 318 313 318 329 332 329 330 330 330 333 334 319 267 275 298 312 314 314 318 323 328 332 335 336 339 343 344 348 353 353 349 352 358 355 346 340 336 334 334 336 339 341 342 342 343
207 209 205 185 162 166 166 108 86 97 123 127 123 267 291 272 266 280 303 326 326 314 326 344 345 351 355 338 320 316 317 322 329 331 331 333 332 329 332 333 303 273 285 305 311 312 316 323 329 334 338 341 344 348 350 349 349 353 354 348 347 347 342 337 336 333 331 332 335 339 342 345 350 358
192 189 169 147 144 137 120 101 88 90 101 100 86 46 338 307 296 303 331 352 348 345 353 354 355 355 341 327 322 319 320 326 330 332 335 338 337 338 340 337 318 308 334 345 338 334 336 340 341 341 340 346 358 5 1 352 345 348 353 348 342 339 336 334 332 329 328 330 334 338 341 344 352 7
192 181 152 143 139 133 124 115 107 107 109 106 100 90 316 317 312 319 340 349 344 348 357 357 360 350 323 321 332 333 331 335 335 337 342 345 348 351 351 347 344 349 357 358 352 350 350 349 348 344 341 348 359 4 359 351 341 339 341 339 336 336 334 329 327 327 329 330 331 333 336 340 345 349
172 160 153 149 145 144 143 137 132 135 141 139 140 163 227 280 295 304 316 320 324 341 356 353 341 321 316 332 346 345 344 347 348 350 355 354 354 354 351 348 347 347 348 349 348 350 350 348 345 343 343 349 354 350 343 340 335 333 332 330 330 332 332 329 327 328 330 330 329 330 333 337 340 340
155 154 158 159 155 153 156 155 150 150 158 166 172 194 236 263 277 288 299 311 329 350 354 340 324 322 332 346 350 346 350 356 356 356 357 354 351 349 346 345 345 345 345 344 342 342 342 340 339 339 339 342 346 344 337 334 333 334 335 335 334 335 337 338 336 333 333 333 331 331 331 334 338 339
154 157 163 168 169 167 169 176 179 176 176 184 197 218 243 263 280 297 310 325 350 3 357 344 334 332 340 348 346 345 350 351 349 349 348 345 343 341 339 338 339 341 342 342 340 338 336 335 334 333 330 331 334 337 337 335 333 334 338 341 342 341 341 340 339 337 338 338 335 332 330 331 334 338
163 165 168 172 175 177 179 185 196 205 207 205 211 229 249 268 288 304 318 337 0 7 1 352 340 337 342 343 339 339 342 341 338 339 337 335 334 333 331 332 334 336 338 338 336 335 334 333 331 328 326 325 326 328 333 335 333 333 337 339 340 341 341 340 338 338 339 339 338 334 331 328 329 333
168 166 170 170 169 171 175 180 191 212 229 233 236 246 261 283 303 315 326 341 355 1 1 353 345 342 340 335 331 332 332 330 330 330 328 325 324 323 323 325 327 330 333 334 332 330 331 333 333 330 328 327 326 325 328 332 335 337 338 336 335 337 337 334 333 335 337 337 336 335 333 330 329 332
175 170 171 171 173 180 184 191 212 235 256 272 274 277 292 313 322 326 331 339 350 360 359 350 343 338 328 321 321 321 321 323 325 324 322 322 323 324 325 327 328 330 331 330 329 330 332 334 335 334 334 334 331 326 323 325 332 339 341 339 337 337 333 328 326 328 329 330 330 331 331 330 329 332
180 181 183 183 190 200 204 213 235 250 273 283 285 302 328 338 333 333 338 342 351 2 356 339 331 323 315 313 315 317 318 321 322 322 324 328 333 334 333 332 332 332 330 328 328 330 333 333 333 334 337 338 335 329 322 319 321 330 341 345 337 329 326 325 324 324 324 325 327 327 327 328 329 332
178 185 193 197 210 224 228 238 254 272 294 298 301 320 344 349 340 344 348 342 338 341 333 313 304 302 303 307 311 314 316 318 321 323 328 333 335 334 333 332 332 330 327 327 326 327 328 329 328 331 335 334 330 326 321 316 314 318 327 334 329 323 322 322 323 323 324 325 326 324 325 327 331 333
161 175 187 198 211 222 223 234 258 280 291 298 309 330 352 352 341 346 341 323 321 324 314 299 294 295 299 305 309 311 314 317 320 322 324 327 330 331 330 330 330 327 325 327 328 328 329 330 329 329 328 322 316 314 313 311 308 309 312 315 318 322 322 321 323 325 325 325 326 326 329 331 332 334
122 136 137 139 150 185 268 269 275 278 282 297 317 342 353 323 310 308 299 296 300 300 292 287 289 293 298 303 306 307 310 312 313 314 318 321 325 327 325 324 324 323 324 328 331 329 329 330 329 323 316 313 316 319 319 317 314 312 312 314 317 321 324 326 328 327 324 326 330 332 336 338 336 333
147 142 124 56 325 317 317 309 288 257 246 275 310 330 286 273 268 265 273 285 290 292 291 292 295 298 301 303 303 303 305 307 309 312 315 316 318 318 316 316 316 315 318 326 329 325 325 329 331 325 319 320 326 329 325 321 318 317 318 320 322 324 329 334 338 336 333 336 341 340 341 342 340 335
204 220 255 282 291 291 291 287 276 267 262 259 256 254 257 264 267 266 268 275 282 289 295 298 301 304 305 304 304 305 306 308 310 312 313 316 318 317 316 316 315 312 313 320 321 319 324 330 332 329 327 328 330 327 322 320 319 319 321 324 326 328 330 333 338 343 346 348 348 342 336 333 331 328
242 261 271 279 284 284 283 282 276 271 268 263 262 262 264 270 279 282 281 280 280 283 288 292 294 297 299 300 302 305 308 310 313 317 321 324 327 329 328 327 322 314 312 313 314 319 328 333 332 331 332 331 328 325 323 321 320 320 322 325 327 329 332 334 337 339 340 337 333 327 319 313 312 312
239 253 260 264 268 269 272 276 276 276 273 268 266 266 266 271 279 284 285 286 285 284 285 288 290 293 298 304 310 315 319 322 325 328 330 331 333 335 334 330 324 318 313 311 315 323 331 331 327 326 326 324 323 325 323 320 320 322 323 325 328 331 335 337 336 332 326 322 322 323 323 319 315 312